Погода в Сасыколи

Россия / Астраханская область     47°32′56″N   46°59′59″E
темп.,
°C
ветер,
м/с
пор.,
м/с
влажн.,
%
обл.,
%
осадки,
мм/ч
давл.,
гПа
погр.,
м
14 мая, пт
пт1401:00+19юв47611 0.0 1016109
04:00+17ююв35670 0.0 101769
07:00+19юв25605 0.0 1017137
10:00+27вюв573348 0.0 1017598
13:00+31ююв792499 0.0 10171123
16:00+32ююв911175 0.0 10161727
19:00+28юв712240 0.0 1017437
22:00+23юв614240 0.0 1017262
15 мая, сб
сб1501:00+20вюв411300 0.0 1017163
04:00+19вюв510310 0.0 1017140
07:00+21вюв511380 0.0 1017227
10:00+28ююв711220 0.0 1017684
13:00+32ююв811170 0.0 10172385
16:00+32ююв89170 0.0 10162469
19:00+28ююв5102632 0.0 1016292
22:00+23ююв511350 0.0 1017172
16 мая, вс
вс1601:00+21юв47400 0.0 101696
04:00+20в46370 0.0 101577
07:00+22в511378 0.0 1015210
10:00+30юв69265 0.0 1015714
13:00+32ююв911215 0.0 10142982
16:00+32юв99191 0.0 10132893
19:00+29юв7101999 0.0 1013461
22:00+23юв5112893 0.0 1014192
17 мая, пн
пн1701:00+22вюв5122784 0.0 1013190
04:00+20в5112984 0.0 1012161
07:00+22вюв6133914 0.0 1012276
10:00+29юв8122270 0.0 10121210
13:00+32юв9111511 0.0 10122816
16:00+32юв9101529 0.0 10112636
19:00+29юв6102094 0.0 1011325
22:00+24вюв452299 0.0 101247
18 мая, вт
вт1801:00+22в4522100 0.0 101167
04:00+21в51226100 0.0 1010182
07:00+23вюв5143588 0.0 1010289
10:00+30юв812227 0.0 10111015
13:00+33юв1012155 0.0 10102836
16:00+33ююв91015100 0.0 10102777
19:00+30юв5102076 0.0 1011297
22:00+24вюв4525100 0.0 101151